TimeMDT,TemperatureF,Dew PointF,Humidity,Sea Level PressureIn,VisibilityMPH,Wind Direction,Wind SpeedMPH,Gust SpeedMPH,PrecipitationIn,Events,Conditions,WindDirDegrees,DateUTC
12:53 AM,64.0,18.0,17,29.96,10.0,Calm,Calm,-,N/A,,Clear,0,2012-09-23 06:53:00
1:53 AM,61.0,19.0,20,29.95,10.0,Calm,Calm,-,N/A,,Clear,0,2012-09-23 07:53:00
2:53 AM,55.9,18.0,23,29.98,10.0,Calm,Calm,-,N/A,,Clear,0,2012-09-23 08:53:00
3:53 AM,55.9,18.0,23,29.96,10.0,Calm,Calm,-,N/A,,Clear,0,2012-09-23 09:53:00
4:53 AM,54.0,16.0,22,29.97,10.0,Calm,Calm,-,N/A,,Clear,0,2012-09-23 10:53:00
5:53 AM,60.1,19.0,20,29.97,10.0,Calm,Calm,-,N/A,,Clear,0,2012-09-23 11:53:00
6:53 AM,59.0,19.0,21,30.01,10.0,ESE,4.6,-,N/A,,Clear,120,2012-09-23 12:53:00
7:53 AM,62.1,19.9,20,30.04,10.0,East,3.5,-,N/A,,Mostly Cloudy,90,2012-09-23 13:53:00
8:53 AM,66.9,21.0,17,30.04,10.0,SSE,15.0,-,N/A,,Clear,150,2012-09-23 14:53:00
9:53 AM,69.1,21.0,16,30.06,10.0,ESE,6.9,-,N/A,,Partly Cloudy,120,2012-09-23 15:53:00
10:53 AM,73.9,21.0,14,30.06,10.0,SE,6.9,-,N/A,,Clear,140,2012-09-23 16:53:00
11:53 AM,75.9,21.9,13,30.07,10.0,Calm,Calm,-,N/A,,Partly Cloudy,0,2012-09-23 17:53:00
12:53 PM,81.0,24.1,12,30.01,10.0,SSE,9.2,-,N/A,,Clear,150,2012-09-23 18:53:00
1:53 PM,84.0,30.9,15,30.00,10.0,West,11.5,-,N/A,,Scattered Clouds,260,2012-09-23 19:53:00
2:53 PM,82.9,33.1,17,29.99,10.0,WSW,19.6,28.8,N/A,,Partly Cloudy,240,2012-09-23 20:53:00
3:53 PM,82.0,33.1,17,29.98,10.0,SSW,8.1,-,N/A,,Clear,200,2012-09-23 21:53:00
4:53 PM,82.9,33.1,17,29.96,10.0,South,13.8,-,N/A,,Partly Cloudy,170,2012-09-23 22:53:00
5:53 PM,82.0,32.0,16,29.94,10.0,SW,9.2,-,N/A,,Clear,220,2012-09-23 23:53:00
6:53 PM,80.1,32.0,17,29.94,10.0,SW,6.9,-,N/A,,Clear,220,2012-09-24 00:53:00
7:53 PM,73.0,30.9,21,29.94,10.0,SW,6.9,-,N/A,,Clear,220,2012-09-24 01:53:00
8:53 PM,71.1,30.9,23,29.95,10.0,SW,8.1,-,N/A,,Clear,220,2012-09-24 02:53:00
9:53 PM,73.0,30.9,21,29.94,10.0,SSW,11.5,-,N/A,,Clear,210,2012-09-24 03:53:00
10:53 PM,73.0,32.0,22,29.92,10.0,SSW,11.5,-,N/A,,Partly Cloudy,210,2012-09-24 04:53:00
11:53 PM,75.0,34.0,22,29.92,10.0,SW,10.4,-,N/A,,Mostly Cloudy,220,2012-09-24 05:53:00